Location: Hamayl? Da??
(36.7028°N, 30.1716°E)
Time: 06:29:49
(UTC+00:00)

Cosmos 1238 Rocket - Pass Details

Date: 04 August 2024
Orbit: 365 x 858 km, 82.9° (Epoch: 10 September)

Event Time Altitude Azimuth Distance (km) Brightness Sun altitude
Rises 18:17:41 0° 6° (N) 3,101 7.0 -14.1°
Reaches altitude 10° 18:20:10 10° 18° (NNE) 2,256 6.1 -14.5°
Maximum altitude 18:24:39 30° 78° (ENE) 1,413 4.5 -15.3°
Enters shadow 18:26:38 24° 113° (ESE) 1,654 4.6 -15.6°
